Regional Weather Roundup
Issued by NWS Northern Indiana

Home | Current Version | Previous Version | Text Only | Print | Product List | Glossary On
Versions: 1 2 3 4 5 6 7 8 9 10 11 12 13 14 15 16 17 18 19 20 21 22 23 24 25 26 27 28 29 30 31 32 33 34 35 36 37 38 39 40 41 42 43 44 45 46 47 48 49 50
608
ASUS43 KIWX 261110
RWRIWX

KIWX WEATHER ROUNDUP
NATIONAL WEATHER SERVICE NORTHERN INDIANA
700 AM EDT SUN MAR 26 2017

NOTE: "FAIR" INDICATES FEW OR NO CLOUDS BELOW 12,000 FEET WITH NO
SIGNIFICANT WEATHER AND/OR OBSTRUCTIONS TO VISIBILITY.

* THESE STATIONS ARE NOT UNDER NWS QUALITY CONTROL. THEY ALSO MAY NOT
  REPORT WEATHER SUCH AS PRECIPITATION OR FOG.

INZ001>027-261200-
NORTHERN INDIANA

CITY           SKY/WX    TMP DP  RH WIND       PRES   REMARKS
GARY*          RAIN      52  50  93 SE12      29.87F
VALPARAISO     LGT RAIN  49  48  97 E12       29.90S FOG
MICHIGAN CITY* LGT RAIN  46  46 100 SE7       29.91S
LAPORTE*       LGT RAIN  46  46  99 E8        29.92S
KNOX*          CLOUDY    46  39  76 SE9       29.91S
SOUTH BEND     LGT RAIN  44  32  62 E8        29.93F
GOSHEN         LGT RAIN  46  42  86 E7        29.93F FOG
MONTICELLO*    RAIN      52  51  96 E3        29.89S
LOGANSPORT*    RAIN      50  50 100 E8        29.91F
WARSAW*        LGT RAIN  45  45 100 SE6       29.94S
ANGOLA*        MOCLDY    39  39 100 SE7       29.97S
FORT WAYNE     LGT RAIN  44  42  93 E8        29.97S FOG
HUNTINGTON*    DRIZZLE   46  45  96 E3        29.95S
PERU/GRISSOM   LGT RAIN  53  53 100 SE8       29.90S
MARION*        LGT RAIN  55  54  97 SE8       29.94S

$$
INZ028>050-261200-
CENTRAL INDIANA

CITY           SKY/WX    TMP DP  RH WIND       PRES   REMARKS
LAFAYETTE      LGT RAIN  56  56 100 SE9       29.87F
KOKOMO*        LGT RAIN  55  54  96 S10       29.92F
MUNCIE*        LGT RAIN  58  55  90 S6        29.94F
INDIANAPOLIS   LGT RAIN  56  55  97 SE9       29.90F

$$
MIZ043>046-050>051-056>058-064>065-071>073-077>080-261200-
SOUTHWEST LOWER MICHIGAN

CITY           SKY/WX    TMP DP  RH WIND       PRES   REMARKS
BATTLE CREEK   LGT RAIN  41  40  96 E5        29.98S
BENTON HARBOR  LGT RAIN  47  44  90 SE10      29.93R FOG
COLDWATER*     LGT RAIN  42  42  97 E6        29.98R
HILLSDALE*     LGT RAIN  37  36  93 E10       29.98S
HOLLAND        CLOUDY    43  40  89 E17       29.95F
GRAND RAPIDS   CLOUDY    39  37  92 E15       29.98F FOG
KALAMAZOO      LGT RAIN  43  39  86 E7        29.97S FOG
STURGIS*       RAIN      42  42  97 SE6       29.96S
THREE RIVERS*  LGT RAIN  43  41  95 E6        29.97S

$$
OHZ001>008-015>018-024>025-261200-
NORTHWEST OHIO

CITY           SKY/WX    TMP DP  RH WIND       PRES   REMARKS
WAUSEON*       CLOUDY    39  37  93 NE14      30.00S
DEFIANCE       CLOUDY    39  36  89 NE9       30.00S
FINDLAY        CLOUDY    42  36  79 NE6       29.99S
TOLEDO EXPRESS CLOUDY    38  36  92 E12       30.01F
TOLEDO METCALF CLOUDY    38  37  97 NE9       30.02F
LIMA           MOCLDY    43  40  89 NE5       29.97F

$$
AND FOR LAKE MICHIGAN COASTAL AND OPEN LAKE BUOY OBSERVATIONS

STATION/POSITION TEMP    WIND        PRES    VSBY  WAVE
                 AIR SEA DIR/SP/G                  HT/PER
                 (F)     (DEG/KT/KT) (MB)    (MI)  (FT/S)
CALUMET HARBOR    46     100/  8/ 10 1010.9S
MICHIGAN CITY     48     120/ 12/ 15   N/A
BURNS HARBOR      50     140/  8/ 19 1012.5S

$$
&&




USA.gov is the U.S. government's official web portal to all federal, state and local government web resources and services.